sat.trackr.live / text

‹ back to catalog

STARLINK-5014

NORAD 53926 · 2022-119AS

PAYLOAD ACTIVE UNKNOWN

§ Identity

Operator
Country
US
Launch date
2022-09-24
Launch site
AFETR
Launch vehicle
Mass (kg)
RCS (m²)

Purposes: comms

External: N2YO · Heavens-Above · Gunter

§ Orbital elements

Epoch: 2026-05-25T04:00:03.998880Z

Period
93.11 min
Inclination
53.2170°
Eccentricity
0.0000944
Mean motion
15.46625562 rev/d
Perigee alt
426.0 km
Apogee alt
427.2 km
Semi-major
6,804.7 km
B*
1.1311e-2
RAAN
318.2794°
Arg perigee
99.4039°
Mean anomaly
56.7983°
Rev number
585

§ Raw data

STARLINK-50141 53926U 22119AS  26145.16671295  .00620747  00000+0  11311-1 0  99982 53926  53.2170 318.2794 0000944  99.4039  56.7983 15.46625562  5858

JSON: /api/v1/satellites/53926 · /tle

For live sub-satellite position, see the globe view (requires WebGL).

§ Visibility from observer

Set your observer location to see the next 7 days of passes ≥ 10°. The values pass through the URL so the page stays shareable.

No JS? Fill the form by hand. The geolocation button needs JavaScript.